Location: ????????
(56.1167°N, 38.6333°E)
Time: 21:35:33
(UTC+00:00)

Cosmos 1943 Rocket - Pass Details

Date: 18 November 2025
Orbit: 812 x 841 km, 71.0° (Epoch: 14 December)

Event Time Altitude Azimuth Distance (km) Brightness Sun altitude
Rises 17:27:49 0° 256° (WSW) 3,375 6.1 -34.9°
Reaches altitude 10° 17:30:34 10° 267° (W) 2,439 5.3 -35.2°
Enters shadow 17:35:23 30° 326° (NNW) 1,459 3.7 -35.9°
